Location: Moy Burn
(57.3833°N, 4.0667°W)
Time: 10:21:05
(UTC+00:00)

Cosmos 1954 Rocket - Pass Details

Date: 08 August 2020
Orbit: 752 x 781 km, 74.0° (Epoch: 18 September)

Event Time Altitude Azimuth Distance (km) Brightness Sun altitude
Rises 21:47:15 0° 192° (SSW) 3,256 6.9 -10.1°
Reaches altitude 10° 21:49:39 10° 189° (S) 2,333 6.1 -10.3°
Maximum altitude 21:54:50 57° 111° (ESE) 921 4.1 -10.7°
Drops below altitude 10° 22:00:03 10° 35° (NE) 2,347 6.8 -11.1°
Sets 22:02:28 0° 31° (NNE) 3,277 7.6 -11.3°
